Theta_e
333 341 347 350 350 349 348 347 347 348 348 345 344 342 340 339 338 337 337 337 338 338 338 337 336 337 337 336 336 336 335 334 335 334 334 333 334 334 334 333 332 327 333
336 342 345 349 348 348 347 346 347 347 347 346 343 341 340 339 337 338 337 337 337 337 337 336 336 335 336 335 336 336 334 333 333 333 332 333 333 332 332 332 332 329 333
340 340 343 346 347 347 347 347 347 346 347 344 343 341 340 338 337 336 337 336 336 337 336 335 335 335 334 335 335 336 333 332 332 331 330 323 325 333 333 332 332 333 333
338 339 341 343 345 345 347 347 346 347 346 345 342 340 339 338 336 336 335 336 335 336 335 335 334 334 334 334 334 333 332 332 331 329 322 324 327 334 334 333 333 333 333
336 338 340 342 345 346 347 346 346 346 345 345 342 341 338 338 337 335 336 335 334 334 334 332 333 333 333 333 334 333 332 332 330 325 323 326 326 331 334 334 332 332 332
334 337 340 343 345 345 346 346 346 345 344 342 341 339 337 335 336 335 335 335 334 334 333 332 332 332 332 332 333 333 332 331 327 322 323 328 328 333 335 333 333 333 333
333 336 339 342 344 344 345 345 346 345 344 340 339 337 336 335 334 334 334 334 334 333 333 332 331 331 330 331 332 332 331 328 320 319 321 323 328 336 336 337 337 336 335
334 336 338 336 339 342 343 344 345 344 343 339 337 336 335 335 334 334 334 334 333 333 332 331 330 329 329 330 330 329 328 324 319 320 321 323 333 335 336 336 335 333 332
334 334 335 336 335 334 337 339 341 341 340 339 338 337 336 336 335 335 335 333 333 332 331 330 329 329 329 329 329 328 327 323 317 320 324 324 334 334 335 334 332 331 329
332 332 332 333 334 333 333 332 334 336 337 337 336 333 331 332 332 332 330 333 332 330 329 329 328 328 328 328 329 327 325 322 318 320 322 325 334 335 333 331 329 327 326
330 329 330 331 331 330 330 327 329 331 332 331 329 327 325 325 326 325 327 330 331 329 328 327 327 326 326 325 326 325 322 320 320 320 322 329 334 332 328 327 326 325 324
326 326 328 329 330 329 330 327 327 328 326 325 324 323 324 323 324 325 323 327 329 328 329 327 327 327 322 319 319 322 318 319 322 323 323 330 330 328 326 325 323 324 324
328 327 326 327 330 329 326 325 324 323 323 322 322 323 322 320 320 320 319 321 319 320 318 320 320 319 319 319 319 319 319 317 318 323 321 326 326 325 324 323 324 321 319
328 327 327 326 328 327 326 324 325 323 322 321 323 323 318 316 315 315 315 315 315 316 317 318 318 319 320 320 320 320 319 319 320 317 317 319 323 322 322 324 321 318 318
327 329 330 326 325 324 325 323 322 323 323 323 323 322 318 316 315 316 316 317 318 318 319 318 319 320 320 319 319 320 320 317 317 312 314 315 319 319 322 321 319 318 317
324 326 329 327 324 324 324 322 321 321 322 323 323 322 322 320 318 318 318 319 319 319 320 320 320 318 317 320 321 323 319 316 314 310 310 311 318 319 318 317 317 316 316
324 326 327 328 327 323 323 322 320 320 321 321 322 322 322 321 319 319 319 320 320 321 320 320 319 318 315 316 319 321 319 317 311 306 307 306 308 313 313 313 314 314 314
324 325 327 330 328 324 323 322 321 320 319 319 320 321 322 322 320 319 319 320 321 321 321 319 318 316 315 315 316 318 315 315 310 305 304 303 303 303 306 309 310 310 312
323 324 325 327 327 326 322 321 320 320 319 319 319 320 321 322 321 319 319 320 321 319 319 318 316 314 312 314 315 316 313 307 302 300 301 302 302 298 297 304 305 306 308
323 324 325 326 327 327 323 319 318 317 318 318 320 321 321 321 321 319 320 320 320 318 317 316 315 315 314 316 315 313 310 306 300 297 298 300 297 293 292 293 293 297 305
322 323 324 324 326 325 322 318 316 317 315 316 319 321 321 322 321 320 319 319 319 317 317 316 315 315 318 315 312 307 302 299 295 294 295 295 293 292 291 291 290 290 293
322 322 323 323 325 325 326 322 319 317 317 319 320 321 323 322 322 321 319 319 318 316 315 314 315 314 316 315 310 308 300 299 297 293 293 294 291 290 290 291 290 289 289
321 321 322 323 324 325 326 323 318 317 316 316 317 319 322 323 322 321 320 319 318 316 315 314 315 315 314 314 313 309 302 299 295 292 291 292 290 289 288 289 289 288 288
321 323 323 324 324 324 325 324 322 320 318 320 320 320 321 322 323 322 321 320 319 318 316 316 317 317 316 312 310 309 306 302 295 289 289 290 291 289 288 288 288 288 288
323 321 321 321 323 324 323 323 323 322 322 319 318 318 320 321 322 322 321 319 319 318 319 318 317 320 318 314 310 305 301 298 297 292 285 286 289 289 288 287 287 287 288
322 321 319 315 319 322 322 323 321 320 320 317 317 319 320 323 322 320 320 320 320 319 319 319 319 320 319 316 311 305 302 299 295 290 286 284 286 287 287 287 287 286 286
Wind_Speed
1 4 7 10 12 13 15 15 15 15 16 18 18 18 19 18 18 17 18 18 17 18 18 18 17 19 18 19 17 17 19 20 20 20 19 19 20 20 19 18 15 11 18
7 4 8 11 13 13 14 13 14 15 16 17 18 17 18 18 17 16 17 17 17 18 18 17 17 16 17 18 18 15 20 20 19 18 17 17 19 18 17 17 17 14 17
8 6 6 9 13 13 12 13 13 13 14 17 19 18 15 16 17 16 16 18 16 18 18 18 17 16 16 17 19 21 18 18 18 15 14 5 7 17 16 15 15 16 15
10 6 6 8 10 11 11 12 12 14 13 19 18 18 16 15 16 15 17 17 16 17 18 17 16 16 16 18 18 19 18 18 16 13 5 5 7 16 15 14 14 13 13
8 6 6 8 10 13 14 13 13 15 15 18 18 19 17 14 14 14 17 16 17 16 17 16 15 15 16 17 17 17 18 17 13 8 5 4 6 12 13 12 9 10 10
7 6 8 9 10 12 14 14 13 15 16 18 15 16 14 13 13 13 16 15 15 15 15 16 15 14 15 15 15 15 16 14 10 6 6 7 4 11 10 10 7 7 8
6 6 6 8 8 9 11 13 14 16 17 17 16 15 14 14 14 14 15 15 14 14 14 15 14 12 12 13 15 14 14 11 5 5 5 6 6 11 12 12 16 15 18
9 6 5 7 7 7 9 11 14 17 16 17 15 15 15 15 14 14 14 14 14 13 13 13 12 11 10 10 11 12 9 8 6 6 6 5 10 12 13 16 17 17 15
7 7 5 5 7 8 6 9 11 12 16 17 14 13 12 12 13 11 12 12 12 12 11 11 9 8 7 8 9 10 9 9 6 4 5 4 9 12 15 16 16 16 16
6 6 5 6 5 6 5 8 9 10 11 14 13 12 10 11 10 10 9 10 11 10 9 8 7 6 7 8 8 10 12 9 5 5 3 4 8 15 16 15 14 14 15
7 6 5 6 6 4 6 5 8 8 9 10 9 10 8 4 5 6 7 8 8 7 6 5 4 2 3 5 7 8 6 3 4 3 3 7 12 16 13 13 15 15 15
10 7 5 6 7 7 3 3 4 5 4 4 4 4 3 4 4 5 6 8 6 5 5 4 2 1 3 2 2 5 3 4 4 3 3 10 15 14 12 14 13 15 17
12 8 7 6 7 8 6 4 2 0 3 3 6 4 4 3 3 3 2 2 2 3 0 1 1 1 2 1 2 4 5 4 2 3 6 10 14 11 12 11 15 15 14
12 11 9 7 6 5 4 4 5 4 2 2 4 5 4 3 4 3 2 3 3 2 3 3 2 2 2 2 3 4 5 5 3 3 6 10 10 10 10 14 14 13 13
11 10 10 8 8 6 7 5 5 5 4 4 4 4 3 3 3 3 3 3 3 2 2 3 3 2 2 2 2 4 5 6 6 2 4 10 8 8 11 13 13 12 12
8 10 8 8 9 8 7 7 6 5 5 4 4 5 6 4 4 4 3 4 4 4 3 4 3 2 3 3 3 4 6 6 6 5 4 5 10 12 12 12 11 11 12
9 9 11 11 9 10 9 9 6 6 5 5 5 6 7 6 7 6 5 4 4 4 5 3 2 1 1 0 3 6 6 7 5 5 5 4 6 12 12 11 12 11 11
12 14 11 10 10 11 10 8 7 7 5 5 5 5 7 6 6 5 4 4 5 4 4 3 2 2 2 2 3 3 5 7 7 6 5 4 4 4 8 11 11 10 10
14 14 13 12 11 10 10 8 8 8 7 6 5 5 7 6 6 5 4 4 4 3 3 2 2 1 1 1 3 4 4 6 6 5 6 6 6 4 3 10 11 10 10
14 14 14 12 12 10 5 5 4 4 5 5 7 6 7 5 7 5 4 5 5 4 4 2 3 1 2 3 5 5 5 3 4 4 6 5 5 5 4 4 4 4 8
12 14 14 14 13 8 5 5 4 7 4 4 5 8 8 8 8 7 5 5 5 5 6 5 3 4 3 4 4 4 5 5 4 3 3 4 5 4 5 4 3 3 4
15 15 14 14 14 12 9 4 4 4 4 6 6 7 9 8 8 8 7 6 6 4 5 5 5 2 2 4 3 3 3 2 1 2 1 3 5 3 4 4 4 4 3
16 18 17 17 16 14 14 4 2 2 1 3 4 6 8 9 10 9 8 7 6 5 5 5 5 7 4 3 4 4 2 4 3 1 2 2 4 3 3 4 4 4 3
19 16 17 16 16 14 15 11 12 9 10 9 9 6 7 9 10 10 9 8 7 5 6 6 6 5 4 4 0 1 2 5 4 3 1 3 3 4 5 3 4 5 4
16 15 14 15 14 13 13 16 11 12 9 4 4 6 7 8 11 10 10 9 9 7 9 9 7 9 7 5 4 3 2 1 1 3 3 3 3 4 4 4 4 4 4
13 12 13 14 15 15 15 16 15 16 13 6 6 8 8 8 8 10 11 11 11 10 11 10 10 10 9 8 6 5 5 5 5 4 3 3 5 4 4 4 4 4 4
Wind_Direction
236 151 123 111 115 113 110 106 107 103 101 94 91 91 88 85 85 83 86 84 83 85 84 83 85 83 82 76 69 73 76 76 65 65 63 68 65 65 63 59 50 50 56
156 135 116 112 111 113 112 111 108 107 104 99 96 92 91 91 90 85 88 85 86 87 86 85 85 85 81 71 65 90 83 77 73 63 57 57 67 65 64 58 56 59 58
123 115 112 117 115 116 118 117 112 115 112 107 105 97 93 92 90 92 86 84 82 86 86 86 86 87 78 67 68 84 84 81 74 62 54 35 67 67 65 63 61 54 56
119 114 116 128 121 117 119 121 121 113 110 106 103 102 94 89 91 91 89 87 83 87 87 85 87 86 73 65 77 86 85 81 76 64 43 36 56 68 64 60 58 58 50
112 116 129 127 122 119 123 128 118 107 105 102 97 102 98 95 96 101 91 89 87 88 89 89 90 84 71 69 81 88 87 84 74 61 48 53 58 63 60 63 60 53 48
120 125 127 126 122 122 128 127 122 118 108 101 105 96 107 107 103 102 96 91 91 91 90 87 88 81 70 70 83 97 94 90 71 45 20 12 26 61 54 43 51 46 21
120 117 117 120 114 125 132 131 130 126 114 114 113 118 115 113 114 111 103 98 95 94 91 88 86 81 75 71 77 95 94 89 77 52 34 15 335 49 45 40 59 67 59
128 121 126 128 115 109 121 134 125 124 122 121 128 128 129 123 121 116 113 105 100 97 94 93 89 84 79 70 75 86 94 84 69 54 30 6 353 46 51 59 63 58 52
126 125 130 138 123 113 105 133 129 127 130 132 135 130 124 122 122 111 108 110 104 99 98 97 95 90 78 65 59 75 103 92 70 47 26 354 1 50 63 60 54 50 52
135 135 139 128 122 122 117 108 119 122 129 130 130 127 124 117 110 104 101 112 110 109 108 107 96 77 56 31 28 56 104 81 73 52 17 342 23 70 61 50 53 51 50
147 151 149 139 125 123 127 121 120 131 128 131 133 131 115 119 117 114 118 114 122 127 131 124 107 68 32 4 2 66 109 111 88 52 14 351 66 64 56 61 61 64 62
163 167 166 152 144 134 110 107 130 134 132 135 121 126 120 133 139 134 131 132 139 153 155 149 144 23 53 54 26 59 93 109 98 76 30 53 66 63 69 71 71 70 59
172 169 176 172 168 155 151 150 128 76 144 146 146 151 155 142 136 127 137 147 158 181 142 352 3 115 131 130 66 90 100 87 73 74 55 50 66 75 79 84 74 64 65
166 175 178 172 173 174 148 157 162 158 188 170 192 172 159 169 159 160 169 176 182 206 209 206 218 191 183 183 147 108 126 114 99 93 68 49 68 80 92 86 76 71 71
172 179 179 167 176 178 165 169 166 180 179 194 198 194 167 171 167 169 194 187 212 206 205 191 217 219 240 222 212 126 127 117 113 100 89 69 56 86 85 78 74 73 72
171 179 177 174 179 173 179 177 183 181 192 186 184 187 189 173 182 198 208 212 213 202 198 184 190 194 245 244 213 142 124 126 115 102 87 75 49 74 84 82 81 72 71
191 182 186 182 176 177 187 186 176 190 181 185 190 190 187 189 189 186 192 199 206 200 183 168 189 223 249 232 121 130 134 127 110 97 96 80 69 64 80 81 75 70 71
189 195 189 191 186 184 188 186 184 189 186 189 193 191 199 201 197 191 195 204 200 187 179 174 192 250 275 165 110 113 115 123 120 115 106 84 63 60 79 82 82 77 76
195 194 195 194 193 195 187 191 184 184 186 189 184 200 202 196 195 193 204 222 203 198 172 179 208 194 239 124 73 107 101 113 118 116 112 102 95 78 65 93 75 59 67
199 195 195 196 202 199 182 180 189 174 196 187 195 195 195 194 197 192 203 210 194 183 171 174 208 226 268 108 75 70 67 65 108 113 117 108 100 97 90 81 64 46 65
196 198 195 194 199 187 187 190 199 195 193 211 203 193 196 196 193 194 199 198 183 189 190 187 176 191 214 123 108 79 53 41 52 46 106 120 116 110 108 103 91 63 21
192 202 195 199 198 196 197 194 194 170 200 208 211 206 205 200 200 198 194 202 197 190 202 189 185 178 197 189 138 119 152 186 57 96 61 131 136 127 122 124 112 97 67
196 197 198 199 197 201 198 160 127 110 71 182 213 216 214 205 205 203 199 198 200 188 203 195 194 191 187 221 211 141 135 214 140 147 195 214 158 151 145 143 139 132 111
209 197 197 198 199 199 195 193 204 207 210 214 214 213 209 206 212 210 206 203 199 196 203 209 204 207 155 183 142 141 106 144 174 191 227 202 189 181 176 181 161 162 148
204 199 193 194 199 196 193 203 205 215 218 200 200 201 208 208 214 210 205 201 202 202 215 209 204 209 197 165 176 155 136 116 99 132 192 212 232 200 202 183 179 176 178
202 196 196 188 198 194 194 199 204 213 211 193 200 208 208 211 207 210 207 206 207 209 211 215 219 219 209 197 178 174 170 170 196 158 159 193 190 211 189 199 188 186 183